Date String (YYYY-MM-DD hh:mm:ss) UTC,Instrument flags,absolute air pressure of the measurement (hPa),sample flow rate (lpm),inlet stack bypass flow (lpm),air temperature of the measurement (°C),ambient temperature measured by the external sensor (°C),aerosol sample conditioner tube jacket temperature (°C),OPC LED temperature (°C),internal box temperature (°C),relative humidity of the measurement (%),span deviation,mass concentration of particles derived from Lorenz-Mie calculation of OPC scattering (μg/m³),mass concentration of particles derived from Lorenz-Mie calculation of OPC scattering (μg/m³),mass concentration of particles derived from Lorenz-Mie calculation of OPC scattering (μg/m³)
DateTimeUTC,F1_M11,P_M11,Q1_M11,Q2_M11,T1_M11,T2_M11,T3_M11,T4_M11,T5_M11,U1_M11,ZSPAN_M11,X0_M11,X2_M11,X1_M11
2023-10-26 09:00:00,SystemResetWarning,0823.1,4.99,000.00,029.0,027.6,000.0,037.5,030.6,16.7,-000.8,0017.99,0008.55,0007.07
2023-10-26 09:01:00,SystemResetWarning,0823.3,5.00,000.00,029.0,027.6,000.0,037.5,030.6,16.5,-000.8,0018.65,0008.52,0007.07
2023-10-26 09:02:00,SystemResetWarning,0823.2,4.99,000.00,029.0,027.6,000.0,037.5,030.6,16.6,-000.9,0019.21,0008.45,0007.06
2023-10-26 09:03:00,SystemResetWarning,0823.3,5.00,000.00,029.0,027.5,000.0,037.5,030.6,17.2,-000.7,0019.68,0008.47,0007.09
2023-10-26 09:04:00,SystemResetWarning,0823.1,5.01,000.00,029.0,027.5,000.0,037.5,030.6,17.9,-000.7,0019.27,0008.51,0007.13
2023-10-26 09:05:00,SystemResetWarning,0823.0,5.01,000.00,029.0,027.5,000.0,037.5,030.6,18.0,-000.7,0018.77,0008.52,0007.16
2023-10-26 09:06:00,SystemResetWarning,0823.4,5.00,000.00,029.0,027.5,000.0,037.5,030.6,17.9,-001.1,0018.56,0008.64,0007.19
2023-10-26 09:07:00,SystemResetWarning,0823.0,5.01,000.00,029.0,027.5,000.0,037.5,030.6,17.6,-000.6,0018.22,0008.71,0007.21
2023-10-26 09:08:00,SystemResetWarning,0823.0,5.01,000.00,029.0,027.5,000.0,037.5,030.6,17.3,-000.2,0017.67,0008.67,0007.19
2023-10-26 09:09:00,SystemResetWarning,0823.1,5.00,000.00,029.0,027.6,000.0,037.5,030.6,17.1,-000.4,0017.62,0008.54,0007.08
2023-10-26 09:10:00,SystemResetWarning,0823.3,5.00,000.00,029.0,027.6,000.0,037.5,030.6,16.9,-000.3,0017.58,0008.51,0007.03
2023-10-26 09:11:00,SystemResetWarning,0823.3,5.00,000.00,029.0,027.6,000.0,037.5,030.6,16.7,0000.0,0017.63,0008.51,0007.03
2023-10-26 09:12:00,SystemResetWarning,0823.3,4.99,000.00,029.0,027.6,000.0,037.5,030.6,16.7,0000.2,0017.01,0008.57,0007.07
2023-10-26 09:13:00,SystemResetWarning,0822.9,5.00,000.00,029.0,027.6,000.0,037.5,030.6,16.8,0000.6,0016.38,0008.59,0007.10
2023-10-26 09:14:00,SystemResetWarning,0823.2,5.00,000.00,029.0,027.5,000.0,037.5,030.6,17.0,0000.9,0016.51,0008.62,0007.12
2023-10-26 09:15:00,SystemResetWarning,0823.2,5.01,000.00,029.0,027.5,000.0,037.5,030.5,17.0,0000.3,0018.37,0008.63,0007.12
2023-10-26 09:16:00,SystemResetWarning,0823.0,5.00,000.00,029.0,027.5,000.0,037.5,030.5,17.0,0000.3,0020.09,0008.67,0007.10
2023-10-26 09:17:00,SystemResetWarning,0822.9,5.00,000.00,029.0,027.5,000.0,037.5,030.5,17.1,-000.1,0020.33,0008.61,0007.08
2023-10-26 09:18:00,SystemResetWarning,0823.1,5.00,000.00,029.0,027.5,000.0,037.5,030.6,17.4,-000.1,0020.00,0008.54,0007.04
2023-10-26 09:19:00,SystemResetWarning,0823.0,5.00,000.00,029.0,027.5,000.0,037.5,030.5,17.6,-000.4,0020.53,0008.51,0007.03
2023-10-26 09:20:00,SystemResetWarning,0823.1,5.00,000.00,029.0,027.5,000.0,037.5,030.5,17.8,-000.3,0021.78,0008.66,0007.12
2023-10-26 09:21:00,SystemResetWarning,0823.0,4.99,000.00,028.9,027.5,000.0,037.5,030.5,17.8,-000.3,0022.27,0008.58,0007.06
2023-10-26 09:22:00,SystemResetWarning,0822.9,5.00,000.00,028.9,027.5,000.0,037.5,030.6,18.1,-000.3,0022.09,0008.45,0006.91
2023-10-26 09:23:00,SystemResetWarning,0823.2,4.99,000.00,029.0,027.5,000.0,037.5,030.6,18.3,-000.4,0022.04,0008.37,0006.81
2023-10-26 09:24:00,SystemResetWarning,0822.8,5.00,000.00,029.0,027.6,000.0,037.4,030.6,18.4,-000.6,0022.37,0008.31,0006.74
2023-10-26 09:25:00,SystemResetWarning,0822.9,5.00,000.00,028.9,027.6,000.0,037.4,030.6,18.1,-001.3,0022.38,0008.12,0006.58
2023-10-26 09:26:00,SystemResetWarning,0822.9,5.00,000.00,029.0,027.6,000.0,037.4,030.6,17.5,-000.6,0021.39,0007.95,0006.45
2023-10-26 09:27:00,SystemResetWarning,0823.0,5.00,000.00,029.0,027.6,000.0,037.4,030.6,17.4,-000.6,0019.83,0007.89,0006.41
2023-10-26 09:28:00,SystemResetWarning,0823.0,4.99,000.00,029.0,027.6,000.0,037.4,030.5,17.0,-000.2,0020.47,0007.78,0006.32
2023-10-26 09:29:00,SystemResetWarning,0823.1,5.00,000.00,029.0,027.6,000.0,037.4,030.6,16.9,0000.5,0021.33,0007.64,0006.20
2023-10-26 09:30:00,SystemResetWarning,0823.0,5.00,000.00,029.0,027.6,000.0,037.4,030.6,17.6,0000.5,0020.93,0007.53,0006.10
2023-10-26 09:31:00,SystemResetWarning,0823.0,5.00,000.00,029.0,027.6,000.0,037.4,030.6,17.7,0000.3,0019.90,0007.36,0005.98
2023-10-26 09:32:00,SystemResetWarning,0823.0,5.00,000.00,029.0,027.6,000.0,037.4,030.6,17.8,-000.1,0019.01,0007.34,0005.96
2023-10-26 09:33:00,SystemResetWarning,0823.0,5.00,000.00,029.0,027.6,000.0,037.4,030.6,17.5,-000.1,0018.96,0007.41,0006.01
2023-10-26 09:34:00,SystemResetWarning,0823.0,5.00,000.00,029.0,027.6,000.0,037.4,030.6,17.0,-000.1,0018.91,0007.35,0006.02
2023-10-26 09:35:00,SystemResetWarning,0822.9,5.00,000.00,029.0,027.6,000.0,037.4,030.6,16.7,-000.1,0018.63,0007.42,0006.06
2023-10-26 09:36:00,SystemResetWarning,0823.0,5.00,000.00,029.0,027.6,000.0,037.4,030.6,16.6,0000.0,0018.18,0007.53,0006.11
2023-10-26 09:37:00,SystemResetWarning,0823.0,5.00,000.00,029.0,027.6,000.0,037.4,030.6,16.4,-000.4,0017.60,0007.59,0006.16
2023-10-26 09:38:00,SystemResetWarning,0822.9,5.00,000.00,029.0,027.6,000.0,037.4,030.6,16.3,-000.7,0018.17,0007.58,0006.14
2023-10-26 09:39:00,SystemResetWarning,0822.8,5.00,000.00,029.0,027.6,000.0,037.4,030.6,16.2,-001.1,0017.06,0007.69,0006.25
2023-10-26 09:40:00,SystemResetWarning,0822.9,5.00,000.00,029.0,027.6,000.0,037.4,030.6,16.2,-001.8,0016.54,0007.94,0006.44
2023-10-26 09:41:00,SystemResetWarning,0822.9,5.00,000.00,029.0,027.6,000.0,037.4,030.6,16.2,-001.2,0017.38,0008.16,0006.64
2023-10-26 09:42:00,SystemResetWarning,0822.9,5.00,000.00,029.0,027.6,000.0,037.4,030.6,16.1,-000.9,0017.23,0008.31,0006.78
2023-10-26 09:43:00,SystemResetWarning,0822.9,5.00,000.00,029.0,027.6,000.0,037.4,030.6,15.9,-000.8,0017.22,0008.36,0006.85
2023-10-26 09:44:00,SystemResetWarning,0823.0,4.99,000.00,029.0,027.6,000.0,037.4,030.6,15.8,-001.1,0017.55,0008.37,0006.87
2023-10-26 09:45:00,SystemResetWarning,0823.0,4.99,000.00,029.0,027.6,000.0,037.4,030.6,15.8,-001.3,0018.26,0008.50,0006.93
2023-10-26 09:46:00,SystemResetWarning,0823.0,5.00,000.00,029.0,027.6,000.0,037.4,030.6,16.3,-001.2,0018.41,0008.50,0006.93
2023-10-26 09:47:00,SystemResetWarning,0823.1,5.00,000.00,029.0,027.6,000.0,037.5,030.6,16.8,-001.2,0018.52,0008.46,0006.92
2023-10-26 09:48:00,SystemResetWarning,0823.0,5.01,000.00,029.0,027.6,000.0,037.5,030.6,17.0,-001.1,0018.17,0008.47,0006.95
2023-10-26 09:49:00,SystemResetWarning,0823.1,5.00,000.00,029.0,027.6,000.0,037.5,030.6,16.9,-000.9,0017.93,0008.48,0006.97
2023-10-26 09:50:00,SystemResetWarning,0823.2,5.00,000.00,029.0,027.6,000.0,037.5,030.6,17.0,-000.6,0018.15,0008.41,0006.93
2023-10-26 09:51:00,SystemResetWarning,0823.2,5.01,000.00,029.0,027.6,000.0,037.5,030.6,17.0,-000.5,0017.87,0008.26,0006.81
2023-10-26 09:52:00,SystemResetWarning,0823.3,5.00,000.00,029.0,027.6,000.0,037.5,030.6,17.0,-000.8,0017.94,0008.15,0006.70
2023-10-26 09:53:00,SystemResetWarning,0823.3,5.00,000.00,029.0,027.6,000.0,037.5,030.6,17.2,-001.5,0019.79,0008.11,0006.64
2023-10-26 09:54:00,SystemResetWarning,0823.3,5.00,000.00,029.0,027.6,000.0,037.5,030.6,17.3,-001.7,0019.93,0008.10,0006.64
2023-10-26 09:55:00,SystemResetWarning,0823.3,5.00,000.00,029.0,027.6,000.0,037.4,030.6,17.4,-001.5,0019.90,0008.21,0006.73
2023-10-26 09:56:00,SystemResetWarning,0823.2,5.01,000.00,029.0,027.6,000.0,037.4,030.6,17.4,-001.4,0019.83,0008.30,0006.83
2023-10-26 09:57:00,SystemResetWarning,0823.3,4.99,000.00,029.0,027.6,000.0,037.5,030.6,17.4,-001.1,0020.54,0008.45,0006.93
2023-10-26 09:58:00,SystemResetWarning,0823.2,5.00,000.00,029.0,027.6,000.0,037.5,030.6,17.5,-001.2,0021.19,0008.70,0007.10
2023-10-26 09:59:00,SystemResetWarning,0823.1,4.99,000.00,029.0,027.6,000.0,037.5,030.6,17.6,-001.5,0021.32,0008.93,0007.30
